TimeEDT,TemperatureF,Dew PointF,Humidity,Sea Level PressureIn,VisibilityMPH,Wind Direction,Wind SpeedMPH,Gust SpeedMPH,PrecipitationIn,Events,Conditions,WindDirDegrees,DateUTC
12:18 AM,44.1,43.0,96,30.03,1.5,Calm,Calm,-,N/A,,Clear,0,2014-03-20 04:18:00
12:30 AM,45.0,42.1,90,30.03,4.0,Calm,Calm,-,N/A,,Clear,0,2014-03-20 04:30:00
12:44 AM,44.1,43.0,96,30.03,1.8,Calm,Calm,-,N/A,,Clear,0,2014-03-20 04:44:00
12:53 AM,44.1,42.1,93,30.03,2.5,Calm,Calm,-,N/A,,Clear,0,2014-03-20 04:53:00
1:24 AM,43.0,41.0,93,30.03,5.0,Calm,Calm,-,N/A,,Clear,0,2014-03-20 05:24:00
1:45 AM,43.0,42.1,97,30.03,2.0,Calm,Calm,-,N/A,,Clear,0,2014-03-20 05:45:00
1:53 AM,43.0,42.1,97,30.03,4.0,SW,3.5,-,N/A,,Clear,230,2014-03-20 05:53:00
2:16 AM,42.1,41.0,96,30.02,1.5,Calm,Calm,-,N/A,,Clear,0,2014-03-20 06:16:00
2:45 AM,42.1,41.0,96,30.01,3.0,SW,3.5,-,N/A,,Clear,230,2014-03-20 06:45:00
2:53 AM,42.1,41.0,96,30.01,4.0,Calm,Calm,-,N/A,,Clear,0,2014-03-20 06:53:00
3:53 AM,46.9,45.0,93,30.00,8.0,WSW,5.8,-,N/A,,Clear,250,2014-03-20 07:53:00
4:53 AM,46.0,44.1,93,29.99,7.0,WSW,4.6,-,N/A,,Clear,240,2014-03-20 08:53:00
5:53 AM,46.9,45.0,93,30.00,10.0,West,4.6,-,N/A,,Clear,280,2014-03-20 09:53:00
6:53 AM,46.0,44.1,93,30.01,9.0,West,4.6,-,N/A,,Clear,270,2014-03-20 10:53:00
7:53 AM,48.0,45.0,89,30.02,8.0,West,5.8,-,N/A,,Clear,280,2014-03-20 11:53:00
8:53 AM,51.1,46.9,86,30.03,10.0,West,6.9,-,N/A,,Clear,280,2014-03-20 12:53:00
9:53 AM,57.0,48.0,72,30.05,10.0,NW,8.1,-,N/A,,Clear,310,2014-03-20 13:53:00
10:53 AM,60.1,48.0,64,30.05,10.0,WNW,8.1,-,N/A,,Clear,290,2014-03-20 14:53:00
11:53 AM,64.0,46.0,52,30.04,10.0,WNW,8.1,-,N/A,,Clear,300,2014-03-20 15:53:00
12:53 PM,66.9,46.0,47,30.02,10.0,West,9.2,-,N/A,,Clear,280,2014-03-20 16:53:00
1:53 PM,69.1,45.0,42,30.00,10.0,NNW,8.1,-,N/A,,Clear,330,2014-03-20 17:53:00
2:53 PM,68.0,46.9,47,29.98,10.0,South,11.5,-,N/A,,Clear,190,2014-03-20 18:53:00
3:53 PM,64.0,48.9,58,29.96,10.0,South,9.2,-,N/A,,Clear,190,2014-03-20 19:53:00
4:53 PM,62.1,50.0,65,29.96,10.0,SSW,11.5,-,N/A,,Clear,200,2014-03-20 20:53:00
5:53 PM,61.0,50.0,67,29.96,10.0,SSW,12.7,-,N/A,,Clear,210,2014-03-20 21:53:00
6:53 PM,57.9,50.0,75,29.97,10.0,SW,12.7,-,N/A,,Clear,220,2014-03-20 22:53:00
7:53 PM,57.0,50.0,77,29.99,10.0,SW,11.5,-,N/A,,Clear,220,2014-03-20 23:53:00
8:53 PM,55.9,48.9,77,30.00,10.0,SW,11.5,-,N/A,,Clear,220,2014-03-21 00:53:00
9:53 PM,55.0,48.9,80,30.01,10.0,SW,9.2,-,N/A,,Clear,220,2014-03-21 01:53:00
10:53 PM,53.1,48.9,86,30.02,10.0,SW,9.2,-,N/A,,Clear,220,2014-03-21 02:53:00
11:53 PM,52.0,48.9,89,30.02,10.0,SW,6.9,-,N/A,,Clear,220,2014-03-21 03:53:00